CW4438 Weather Reports


Display with metric or nautical units.
time (UTC)temp
F
wind
direction
speed
MPH
gust
MPH
rain 1hr
in
rain 24hr
in
rain mn
in
humidity
%
barometer
mb
20260506154930 52 318 1.0 6.0 0.00 0.02 0.01 76 1017.0
20260506154429 52 341 2.0 6.0 0.00 0.02 0.01 78 1016.8
20260506153930 52 347 2.0 7.0 0.00 0.02 0.01 74 1016.9
20260506153429 52 121 2.0 7.0 0.00 0.02 0.01 77 1016.8
20260506152929 51 17 2.0 9.0 0.00 0.02 0.01 76 1016.9
20260506152429 51 78 2.0 9.0 0.00 0.02 0.01 79 1016.9
20260506151930 51 128 2.0 5.0 0.00 0.02 0.01 78 1016.8
20260506150929 51 329 2.0 5.0 0.00 0.02 0.01 80 1016.8
20260506150422 51 28 2.0 5.0 0.00 0.02 0.01 80 1016.8
20260506145920 51 205 2.0 6.0 0.00 0.02 0.01 81 1016.9
20260506145420 51 18 2.0 6.0 0.00 0.02 0.01 79 1016.9
20260506144921 50 121 2.0 6.0 0.00 0.02 0.01 79 1016.8
20260506144420 50 313 2.0 6.0 0.00 0.02 0.01 79 1016.9
20260506143920 50 10 2.0 7.0 0.00 0.02 0.01 79 1016.8
20260506142918 50 351 1.0 9.0 0.00 0.02 0.01 81 1016.7
20260506142418 50 92 1.0 9.0 0.00 0.02 0.01 82 1016.5
20260506141918 50 304 2.0 7.0 0.00 0.02 0.01 82 1016.3
20260506141418 49 13 2.0 6.0 0.00 0.02 0.01 82 1016.6
20260506140919 49 100 2.0 6.0 0.00 0.02 0.01 82 1016.6
20260506140418 49 350 2.0 5.0 0.00 0.02 0.01 83 1016.7
20260506135918 49 317 1.0 5.0 0.00 0.02 0.01 85 1016.6
20260506135420 49 334 2.0 6.0 0.00 0.02 0.01 85 1016.5
20260506134415 49 14 1.0 3.0 0.00 0.02 0.01 87 1016.8
20260506133404 48 29 1.0 5.0 0.00 0.02 0.01 88 1016.7
20260506132903 48 50 1.0 4.0 0.00 0.02 0.01 87 1016.7
20260506132403 47 317 1.0 4.0 0.00 0.02 0.01 88 1016.5
20260506131902 47 59 1.0 4.0 0.00 0.02 0.01 89 1016.6
20260506131401 47 134 1.0 5.0 0.00 0.02 0.01 89 1016.3
20260506130901 47 45 1.0 5.0 0.00 0.02 0.01 89 1016.3
20260506130400 47 18 1.0 6.0 0.00 0.02 0.01 89 1016.6
20260506125858 47 96 1.0 6.0 0.00 0.02 0.01 90 1016.5
20260506125352 46 114 1.0 4.0 0.00 0.02 0.01 90 1016.2
20260506124847 46 5 2.0 5.0 0.00 0.02 0.01 90 1016.1
20260506123836 46 33 1.0 6.0 0.00 0.02 0.01 91 1016.2
20260506123335 46 331 1.0 4.0 0.00 0.02 0.01 91 1016.3
20260506122834 46 251 1.0 4.0 0.00 0.02 0.01 91 1016.1
20260506122334 46 158 1.0 4.0 0.00 0.02 0.01 91 1016.1
20260506121832 46 19 1.0 4.0 0.00 0.02 0.01 91 1015.9
20260506121332 46 332 0.0 3.0 0.00 0.02 0.01 91 1016.0
20260506120833 46 342 1.0 3.0 0.00 0.02 0.01 91 1015.8
20260506115330 45 326 1.0 3.0 0.00 0.02 0.01 91 1015.6
20260506114830 45 51 1.0 3.0 0.00 0.02 0.01 91 1015.8
20260506114330 45 296 0.0 3.0 0.00 0.02 0.01 91 1015.7
20260506113830 46 351 0.0 3.0 0.00 0.02 0.01 91 1015.7
20260506113330 45 275 0.0 2.0 0.00 0.02 0.01 91 1015.7
20260506112327 45 138 0.0 3.0 0.00 0.02 0.01 91 1015.6
20260506111808 45 302 0.0 3.0 0.00 0.02 0.01 91 1015.6
20260506110801 45 31 0.0 4.0 0.00 0.02 0.01 91 1015.2
20260506110302 45 15 1.0 4.0 0.00 0.02 0.01 91 1015.2
20260506105802 45 350 1.0 4.0 0.00 0.02 0.01 91 1015.0
20260506105304 45 284 0.0 2.0 0.00 0.02 0.01 91 1015.0
20260506104801 45 32 0.0 2.0 0.00 0.02 0.01 91 1014.9
20260506104303 45 27 0.0 2.0 0.00 0.02 0.01 91 1014.8
20260506103801 45 300 0.0 2.0 0.00 0.02 0.01 91 1014.4
20260506103302 45 5 0.0 2.0 0.00 0.02 0.01 91 1014.4
20260506102800 45 338 0.0 3.0 0.00 0.02 0.01 91 1014.2
20260506102305 45 350 1.0 4.0 0.00 0.02 0.01 91 1014.2
20260506101801 45 350 1.0 4.0 0.00 0.03 0.01 91 1014.0
20260506101301 45 44 0.0 2.0 0.00 0.03 0.01 91 1013.8
20260506100800 45 89 0.0 2.0 0.00 0.03 0.01 91 1013.5
20260506100301 45 98 0.0 2.0 0.00 0.04 0.01 91 1013.3
20260506095800 45 250 1.0 4.0 0.00 0.04 0.01 91 1013.3
20260506095301 45 66 1.0 4.0 0.00 0.04 0.01 91 1013.3
20260506094800 45 254 1.0 7.0 0.00 0.04 0.01 91 1013.1
20260506094301 45 43 1.0 7.0 0.00 0.04 0.01 91 1012.9
20260506093303 45 56 1.0 3.0 0.00 0.04 0.01 92 1012.7
20260506092305 46 115 0.0 3.0 0.00 0.04 0.01 92 1012.7
20260506091802 46 40 1.0 3.0 0.00 0.04 0.01 92 1012.8
20260506091302 46 11 1.0 3.0 0.00 0.04 0.01 92 1012.9
20260506090802 46 333 1.0 3.0 0.00 0.05 0.01 93 1012.7
20260506090302 46 96 0.0 2.0 0.00 0.05 0.01 93 1012.8
20260506085802 46 72 0.0 2.0 0.00 0.05 0.01 93 1012.9
20260506084239 46 36 0.0 2.0 0.00 0.20 0.01 93 1012.7
20260506083733 46 46 1.0 3.0 0.00 0.26 0.01 93 1012.7
20260506082730 46 351 1.0 4.0 0.00 0.29 0.01 93 1012.9
20260506082230 45 78 1.0 4.0 0.00 0.31 0.01 93 1012.6
20260506081730 45 84 1.0 4.0 0.00 0.33 0.01 93 1012.5
20260506081231 45 148 1.0 4.0 0.00 0.33 0.01 93 1012.2
20260506080730 45 111 1.0 6.0 0.00 0.33 0.01 93 1012.4
20260506072727 46 336 0.0 2.0 0.00 0.78 0.01 94 1012.1
20260506071202 46 314 1.0 7.0 0.00 1.08 0.01 94 1012.2
20260506070702 46 256 2.0 10.0 0.00 1.20 0.01 94 1012.0
20260506070203 46 60 2.0 10.0 0.00 1.34 0.01 94 1012.1
20260506062202 46 30 1.0 6.0 0.01 1.46 0.01 94 1012.7
20260506061702 46 346 1.0 6.0 0.01 1.46 0.01 94 1012.5
20260506061203 46 294 1.0 4.0 0.01 1.47 0.01 94 1012.4
20260506060700 46 267 2.0 6.0 0.01 1.48 0.01 94 1012.3
20260506060147 46 332 2.0 7.0 0.01 1.49 0.01 94 1012.2
20260506051132 46 327 0.0 3.0 0.00 1.48 0.00 94 1012.5
20260506050630 46 16 0.0 2.0 0.00 1.48 0.00 94 1012.5
20260506050129 46 346 0.0 2.0 0.00 1.48 0.00 94 1012.3
20260506045129 46 78 1.0 3.0 0.00 1.48 1.48 94 1012.3
20260506044627 46 74 1.0 3.0 0.00 1.48 1.48 93 1012.2
20260506044117 46 13 1.0 4.0 0.00 1.48 1.48 93 1012.2
20260506043614 46 47 1.0 4.0 0.00 1.48 1.48 93 1012.1
20260506043109 46 85 1.0 7.0 0.00 1.48 1.48 93 1012.0
20260506042605 47 5 1.0 7.0 0.00 1.48 1.48 93 1012.0
20260506042106 47 295 2.0 7.0 0.00 1.48 1.48 93 1012.1
20260506041605 46 117 2.0 8.0 0.00 1.48 1.48 93 1012.1
20260506041105 46 5 2.0 8.0 0.00 1.48 1.48 93 1012.0
20260506040605 47 312 1.0 6.0 0.00 1.48 1.48 94 1011.9
20260506040104 47 72 1.0 8.0 0.00 1.48 1.48 94 1011.8
20260506035603 47 5 2.0 8.0 0.00 1.48 1.48 94 1011.7
20260506035106 47 17 2.0 7.0 0.00 1.48 1.48 94 1011.7
20260506034602 47 28 1.0 7.0 0.00 1.48 1.48 94 1011.6
20260506034102 47 269 1.0 7.0 0.00 1.48 1.48 94 1011.5
20260506033606 47 51 2.0 7.0 0.00 1.48 1.48 94 1011.5
20260506033101 47 17 1.0 7.0 0.00 1.48 1.48 94 1011.4
20260506032601 47 351 1.0 2.0 0.00 1.48 1.48 94 1011.3
20260506032059 47 330 1.0 3.0 0.00 1.48 1.48 94 1010.9
20260506031559 47 5 1.0 3.0 0.00 1.48 1.48 94 1010.9
20260506031059 47 20 1.0 3.0 0.00 1.48 1.48 94 1010.7
20260506030559 47 19 1.0 3.0 0.00 1.48 1.48 94 1010.9
20260506025557 47 105 1.0 4.0 0.00 1.48 1.48 94 1010.5
20260506025100 47 351 1.0 4.0 0.00 1.48 1.48 94 1010.5
20260506024557 47 45 1.0 5.0 0.00 1.48 1.48 94 1010.4
20260506023554 47 334 1.0 4.0 0.00 1.48 1.48 94 1010.0
20260506023055 47 345 1.0 4.0 0.00 1.48 1.48 94 1009.9
20260506022555 47 350 1.0 4.0 0.00 1.48 1.48 94 1009.9
20260506021549 47 5 1.0 4.0 0.00 1.48 1.48 94 1009.9
20260506021049 47 152 1.0 6.0 0.00 1.48 1.48 94 1009.8
20260506020552 47 351 1.0 6.0 0.00 1.48 1.48 94 1009.9
20260506020047 47 312 1.0 3.0 0.00 1.48 1.48 94 1009.9
20260506015546 47 12 1.0 3.0 0.00 1.48 1.48 93 1009.8
20260506014547 47 30 1.0 3.0 0.00 1.48 1.48 93 1010.1
20260506014047 47 128 1.0 3.0 0.00 1.48 1.48 93 1010.4
20260506013549 47 167 1.0 4.0 0.00 1.48 1.48 93 1010.2
20260506013047 47 184 1.0 4.0 0.00 1.48 1.48 93 1009.9
20260506012547 47 5 1.0 5.0 0.00 1.48 1.48 93 1009.6
20260506012048 47 317 2.0 6.0 0.00 1.48 1.48 93 1009.3
20260506011547 47 17 1.0 6.0 0.00 1.48 1.48 93 1009.0
20260506011047 48 344 1.0 3.0 0.00 1.48 1.48 93 1009.4
20260506010550 48 18 1.0 5.0 0.00 1.48 1.48 93 1009.0
20260506010047 48 337 1.0 5.0 0.00 1.48 1.48 93 1009.2
20260506005547 48 41 1.0 4.0 0.00 1.48 1.48 93 1009.3
20260506005048 48 327 2.0 4.0 0.00 1.48 1.48 93 1009.2
20260506004547 48 315 1.0 5.0 0.00 1.48 1.48 93 1009.4
20260506004049 48 153 2.0 5.0 0.00 1.48 1.48 93 1009.0
20260506003549 48 18 2.0 5.0 0.00 1.48 1.48 92 1009.3
20260506003047 49 349 1.0 4.0 0.00 1.48 1.48 93 1009.3
20260506002547 49 341 1.0 4.0 0.00 1.48 1.48 93 1008.8
20260506002043 49 57 1.0 5.0 0.00 1.48 1.48 93 1008.9
20260506001543 49 28 1.0 5.0 0.00 1.48 1.48 92 1008.9
20260506001044 49 315 2.0 5.0 0.00 1.48 1.48 92 1008.8
20260506000543 49 87 1.0 4.0 0.00 1.48 1.48 92 1008.7
20260506000043 49 76 1.0 4.0 0.00 1.48 1.48 92 1008.6
20260505235544 49 28 1.0 6.0 0.00 1.48 1.48 92 1009.0
20260505235048 49 309 1.0 6.0 0.00 1.48 1.48 92 1008.8
20260505234543 49 350 1.0 4.0 0.00 1.48 1.48 92 1008.7
20260505234041 49 167 1.0 5.0 0.00 1.48 1.48 92 1008.2
20260505233538 49 337 2.0 5.0 0.00 1.48 1.48 92 1008.6
20260505233033 49 311 2.0 3.0 0.00 1.48 1.48 92 1008.4
20260505232533 49 336 1.0 4.0 0.00 1.48 1.48 92 1008.2
20260505232033 49 13 1.0 5.0 0.00 1.48 1.48 92 1007.8
20260505231533 49 254 1.0 7.0 0.00 1.48 1.48 92 1008.1
20260505231033 50 19 1.0 7.0 0.00 1.48 1.48 92 1008.1
20260505230533 50 329 1.0 5.0 0.00 1.48 1.48 92 1008.0
20260505230033 50 340 1.0 4.0 0.00 1.48 1.48 92 1007.9
20260505225530 50 355 2.0 4.0 0.00 1.48 1.48 92 1007.7
20260505225029 50 296 2.0 9.0 0.00 1.48 1.48 92 1007.6
20260505224528 50 82 2.0 9.0 0.00 1.48 1.48 92 1007.6
20260505224029 50 318 2.0 6.0 0.00 1.48 1.48 92 1007.8
20260505223029 51 106 2.0 8.0 0.00 1.48 1.48 92 1007.7
20260505222529 51 38 2.0 7.0 0.00 1.48 1.48 92 1007.4
20260505222029 51 135 2.0 7.0 0.00 1.48 1.48 91 1007.2
20260505221029 52 346 2.0 6.0 0.00 1.48 1.48 91 1007.1
20260505220525 52 45 2.0 6.0 0.00 1.48 1.48 92 1007.5
20260505220024 52 0 1.0 6.0 0.00 1.48 1.48 92 1007.2
20260505215525 52 331 1.0 4.0 0.00 1.48 1.48 92 1007.1
20260505215025 52 5 1.0 7.0 0.00 1.48 1.48 92 1007.1
20260505214524 52 53 2.0 7.0 0.00 1.48 1.48 92 1007.3
20260505213525 53 23 2.0 6.0 0.00 1.48 1.48 92 1007.3
20260505212525 53 136 2.0 7.0 0.00 1.48 1.48 92 1007.1
20260505212025 53 171 2.0 7.0 0.00 1.48 1.48 92 1007.1
20260505211524 53 303 2.0 7.0 0.00 1.48 1.48 92 1006.9
20260505211025 53 333 2.0 7.0 0.00 1.48 1.48 92 1006.9
20260505210525 53 350 2.0 6.0 0.00 1.48 1.48 92 1007.0
20260505210025 54 34 2.0 7.0 0.00 1.48 1.48 92 1007.0
20260505204513 54 268 1.0 3.0 0.01 1.48 1.48 93 1007.0
20260505204010 54 99 1.0 3.0 0.01 1.48 1.48 92 1007.1
20260505203511 54 53 1.0 4.0 0.01 1.48 1.48 93 1007.0
20260505203010 54 54 1.0 5.0 0.01 1.48 1.48 92 1007.0
20260505202511 54 56 2.0 10.0 0.01 1.48 1.48 93 1007.0
20260505201512 55 17 2.0 5.0 0.01 1.48 1.48 93 1007.0
20260505200510 55 14 2.0 10.0 0.01 1.48 1.48 93 1006.7
20260505200004 55 305 2.0 6.0 0.01 1.48 1.48 93 1006.7
20260505195503 55 58 2.0 6.0 0.01 1.48 1.48 93 1007.1
20260505194503 55 336 1.0 4.0 0.00 1.47 1.47 93 1007.4
20260505194002 56 189 1.0 4.0 0.00 1.47 1.47 93 1007.4
20260505193501 56 290 2.0 13.0 0.00 1.47 1.47 93 1007.0
20260505193000 56 323 2.0 13.0 0.00 1.47 1.47 93 1006.5
20260505192501 56 332 1.0 5.0 0.00 1.47 1.47 93 1006.1
20260505191501 56 350 2.0 10.0 0.00 1.47 1.47 92 1006.5
20260505191000 56 82 2.0 6.0 0.00 1.47 1.47 93 1006.5
20260505190501 56 34 1.0 4.0 0.00 1.47 1.47 93 1006.4
20260505190002 56 290 1.0 4.0 0.00 1.47 1.47 93 1006.7
20260505185501 56 5 1.0 6.0 0.00 1.47 1.47 93 1006.8
20260505185002 57 25 2.0 6.0 0.00 1.47 1.47 92 1006.9
20260505184503 57 333 2.0 6.0 0.00 1.47 1.47 92 1006.6
20260505184002 57 0 1.0 6.0 0.00 1.47 1.47 92 1006.4
20260505183502 57 78 1.0 5.0 0.00 1.47 1.47 92 1006.4
20260505183003 57 267 2.0 4.0 0.00 1.47 1.47 92 1006.5
20260505182502 58 5 2.0 7.0 0.00 1.47 1.47 92 1006.4
20260505182002 58 61 2.0 7.0 0.00 1.47 1.47 92 1006.4
20260505181503 58 323 2.0 7.0 0.00 1.47 1.47 92 1006.4
20260505181002 59 207 1.0 7.0 0.00 1.47 1.47 92 1006.1
20260505180502 59 331 2.0 6.0 0.00 1.47 1.47 92 1006.1
20260505180002 60 289 2.0 9.0 0.00 1.47 1.47 93 1005.9
20260505175502 60 26 2.0 9.0 0.00 1.47 1.47 93 1006.0
20260505175002 61 284 1.0 7.0 0.00 1.47 1.47 94 1006.0
20260505174001 62 300 1.0 3.0 0.00 1.47 1.47 95 1005.9
20260505173500 62 46 1.0 3.0 0.00 1.47 1.47 95 1005.9
20260505173001 62 336 1.0 5.0 0.00 1.47 1.47 95 1005.9
20260505172007 62 322 1.0 3.0 0.00 1.47 1.47 95 1005.8
20260505171506 63 32 0.0 3.0 0.00 1.47 1.47 95 1005.5
20260505171002 63 296 0.0 3.0 0.00 1.47 1.47 95 1005.5
20260505170502 63 40 0.0 5.0 0.00 1.47 1.47 95 1005.5
20260505170001 63 98 1.0 5.0 0.00 1.47 1.47 95 1005.5
20260505165501 63 49 0.0 2.0 0.00 1.47 1.47 95 1005.5
20260505165001 63 13 0.0 3.0 0.00 1.47 1.47 95 1005.7
20260505164457 63 350 1.0 3.0 0.00 1.47 1.47 95 1005.8
20260505163951 63 346 0.0 3.0 0.00 1.47 1.47 95 1005.8
20260505163432 63 0 0.0 3.0 0.00 1.47 1.47 95 1005.8
20260505162431 63 33 0.0 1.0 0.00 1.47 1.47 96 1005.7
20260505161930 63 0 0.0 1.0 0.00 1.47 1.47 96 1005.7
20260505161430 63 26 0.0 1.0 0.00 1.47 1.47 96 1005.5
20260505160931 63 0 0.0 3.0 0.00 1.47 1.47 96 1005.5